Location: Cahas Mountain Overlook
(37.0833°N, 80.1000°W)
Time: 03:38:40
(UTC-04:00)

ISS - Visible Passes

Search period start: 03 October 2023 00:00
Search period end: 13 October 2023 00:00
Orbit: 414 x 421 km, 51.6° (Epoch: 03 October)

Date Brightness Start Highest point End Pass type
(mag) Time Alt. Az. Time Alt. Az. Time Alt. Az.
03 Oct -3.3 19:31:22 10° NW 19:34:35 45° NE 19:37:48 10° ESE visible
03 Oct -1.1 21:08:58 10° W 21:10:50 16° WSW 21:10:50 16° WSW visible
04 Oct -2.0 20:20:07 10° WNW 20:23:03 28° SW 20:25:14 15° S visible
05 Oct -3.1 19:31:39 10° WNW 19:34:55 54° SW 19:38:11 10° SE visible
07 Oct -0.9 19:32:39 10° W 19:34:53 17° SW 19:37:07 10° S visible
